Location: Blackwater Beach
(38.5801°N, 75.1577°W)
Time: 03:53:15
(UTC+00:00)

Cosmos 2297 Rocket - Pass Details

Date: 23 May 2026
Orbit: 838 x 842 km, 71.0° (Epoch: 9 June)

Event Time Altitude Azimuth Distance (km) Brightness Sun altitude
Exits shadow 02:42:42 54° 144° (SE) 1,014 2.2 -23.0°
Maximum altitude 02:43:30 60° 108° (ESE) 958 2.2 -23.0°
Drops below altitude 10° 02:49:03 10° 30° (NNE) 2,460 4.9 -23.6°
Sets 02:51:31 0° 27° (NNE) 3,399 5.8 -23.9°
